N2PUI Weather Reports


Display with metric or nautical units.
time (UTC)temp
F
wind
direction
speed
MPH
gust
MPH
rain 1hr
in
rain 24hr
in
rain mn
in
humidity
%
barometer
mb
20260905140751 69 287 5.0 6.0 0.00 0.00 0.00 79 1014.5
20260905140251 69 208 1.0 2.0 0.00 0.00 0.00 79 1014.3
20260905135749 69 276 3.0 3.0 0.00 0.00 0.00 80 1014.5
20260905135245 68 214 3.0 5.0 0.00 0.00 0.00 81 1014.4
20260905134744 68 39 2.0 3.0 0.00 0.00 0.00 82 1014.6
20260905134239 68 283 3.0 5.0 0.00 0.00 0.00 83 1014.5
20260905133734 66 202 2.0 2.0 0.00 0.00 0.00 85 1014.7
20260905133229 66 279 2.0 3.0 0.00 0.00 0.00 86 1014.5
20260905132728 66 21 4.0 5.0 0.00 0.00 0.00 86 1014.7
20260905132224 65 177 1.0 1.0 0.00 0.00 0.00 90 1014.6
20260905131719 64 178 1.0 1.0 0.00 0.00 0.00 94 1014.2
20260905131214 63 161 1.0 1.0 0.00 0.00 0.00 95 1014.4
20260905130713 63 172 1.0 1.0 0.00 0.00 0.00 95 1014.4
20260905130208 62 135 1.0 1.0 0.00 0.00 0.00 95 1014.4
20260905125703 62 182 1.0 1.0 0.00 0.00 0.00 95 1014.8
20260905125158 62 170 0.0 0.0 0.00 0.00 0.00 95 1014.8
20260905124654 62 170 0.0 0.0 0.00 0.00 0.00 95 1014.7
20260905124150 61 170 0.0 0.0 0.00 0.00 0.00 95 1014.9
20260905123645 61 162 0.0 0.0 0.00 0.00 0.00 95 1015.0
20260905123142 60 185 0.0 0.0 0.00 0.00 0.00 95 1015.1
20260905122641 59 199 1.0 1.0 0.00 0.00 0.00 95 1015.0
20260905122136 59 187 0.0 0.0 0.00 0.00 0.00 95 1015.0
20260905121631 59 200 1.0 1.0 0.00 0.00 0.00 95 1014.9
20260905121127 58 180 0.0 0.0 0.00 0.00 0.00 95 1014.9
20260905120625 58 180 0.0 0.0 0.00 0.00 0.00 95 1014.6
20260905120121 58 205 1.0 1.0 0.00 0.00 0.00 95 1014.6
20260905115620 59 180 0.0 0.0 0.00 0.00 0.00 95 1014.7
20260905115115 59 197 0.0 0.0 0.00 0.00 0.00 95 1014.6
20260905114614 59 164 0.0 0.0 0.00 0.00 0.00 95 1014.3
20260905114113 58 129 0.0 1.0 0.00 0.00 0.00 95 1014.1
20260905113609 58 173 0.0 0.0 0.00 0.00 0.00 95 1014.4
20260905113104 58 155 0.0 0.0 0.00 0.00 0.00 95 1014.5
20260905112558 58 212 0.0 0.0 0.00 0.00 0.00 95 1014.3
20260905112054 58 189 0.0 0.0 0.00 0.00 0.00 95 1014.3
20260905111549 58 114 2.0 2.0 0.00 0.00 0.00 95 1014.2
20260905111048 58 67 1.0 2.0 0.00 0.00 0.00 95 1014.0
20260905110547 58 178 0.0 0.0 0.00 0.00 0.00 95 1014.3
20260905110043 58 189 0.0 0.0 0.00 0.00 0.00 95 1014.4
20260905105542 58 207 0.0 0.0 0.00 0.00 0.00 95 1014.1
20260905105042 57 185 0.0 0.0 0.00 0.00 0.00 95 1013.9
20260905104538 57 199 0.0 0.0 0.00 0.00 0.00 95 1013.8
20260905104037 57 192 0.0 0.0 0.00 0.00 0.00 95 1013.7
20260905103533 57 180 0.0 0.0 0.00 0.00 0.00 95 1013.6
20260905103029 57 200 0.0 0.0 0.00 0.00 0.00 95 1013.7
20260905102524 57 189 0.0 0.0 0.00 0.00 0.00 95 1013.8
20260905102021 57 175 0.0 0.0 0.00 0.00 0.00 95 1013.5
20260905101519 57 182 0.0 0.0 0.00 0.00 0.00 95 1013.8
20260905101017 57 153 0.0 0.0 0.00 0.00 0.00 95 1013.8
20260905100514 56 153 0.0 0.0 0.00 0.00 0.00 95 1013.6
20260905100008 56 152 0.0 0.0 0.00 0.00 0.00 95 1013.5
20260905095503 56 152 0.0 0.0 0.00 0.00 0.00 95 1013.4
20260905094957 56 152 0.0 0.0 0.00 0.00 0.00 95 1013.4
20260905094453 56 152 0.0 0.0 0.00 0.00 0.00 95 1013.3
20260905093951 56 152 0.0 0.0 0.00 0.00 0.00 95 1013.3
20260905093447 56 154 0.0 0.0 0.00 0.00 0.00 95 1013.1
20260905092943 56 153 0.0 0.0 0.00 0.00 0.00 95 1013.5
20260905092438 56 144 0.0 0.0 0.00 0.00 0.00 95 1013.4
20260905091932 56 144 0.0 0.0 0.00 0.00 0.00 95 1013.4
20260905091427 56 144 0.0 0.0 0.00 0.00 0.00 95 1013.4
20260905090926 56 144 0.0 0.0 0.00 0.00 0.00 95 1013.5
20260905090422 56 143 0.0 0.0 0.00 0.00 0.00 95 1013.6
20260905085921 56 142 0.0 0.0 0.00 0.00 0.00 95 1013.5
20260905085420 56 151 0.0 0.0 0.00 0.00 0.00 95 1013.6
20260905084917 56 166 0.0 0.0 0.00 0.00 0.00 95 1013.6
20260905084416 56 148 0.0 0.0 0.00 0.00 0.00 95 1013.5
20260905083911 56 145 0.0 0.0 0.00 0.00 0.00 95 1013.4
20260905083407 56 172 0.0 0.0 0.00 0.00 0.00 95 1013.5
20260905082902 56 171 0.0 0.0 0.00 0.00 0.00 95 1013.4
20260905082358 56 171 0.0 0.0 0.00 0.00 0.00 95 1013.6
20260905081853 56 171 0.0 0.0 0.00 0.00 0.00 95 1013.3
20260905081348 56 171 0.0 0.0 0.00 0.00 0.00 95 1013.5
20260905080846 56 172 0.0 0.0 0.00 0.00 0.00 95 1013.4
20260905080341 57 171 0.0 0.0 0.00 0.00 0.00 95 1013.4
20260905075839 57 172 0.0 0.0 0.00 0.00 0.00 95 1013.7
20260905075334 56 171 0.0 0.0 0.00 0.00 0.00 95 1013.9
20260905074833 57 171 0.0 0.0 0.00 0.00 0.00 95 1013.6
20260905074329 57 182 0.0 0.0 0.00 0.00 0.00 95 1013.7
20260905073825 57 182 0.0 0.0 0.00 0.00 0.00 95 1013.6
20260905073319 57 183 0.0 0.0 0.00 0.00 0.00 95 1013.6
20260905072814 58 182 0.0 0.0 0.00 0.00 0.00 95 1013.6
20260905072309 58 176 0.0 0.0 0.00 0.00 0.00 95 1013.8
20260905071806 58 175 0.0 0.0 0.00 0.00 0.00 95 1013.6
20260905071302 57 175 0.0 0.0 0.00 0.00 0.00 95 1013.6
20260905070756 58 174 0.0 0.0 0.00 0.00 0.00 95 1013.8
20260905070252 58 174 0.0 0.0 0.00 0.00 0.00 95 1013.6
20260905065751 58 174 0.0 0.0 0.00 0.00 0.00 95 1013.9
20260905065244 59 174 0.0 0.0 0.00 0.00 0.00 95 1014.1
20260905064740 59 174 0.0 0.0 0.00 0.00 0.00 95 1014.0
20260905064235 59 193 0.0 0.0 0.00 0.00 0.00 95 1013.5
20260905063728 59 187 0.0 0.0 0.00 0.00 0.00 95 1013.9
20260905063224 59 189 0.0 0.0 0.00 0.00 0.00 95 1014.0
20260905062720 59 188 0.0 0.0 0.00 0.00 0.00 95 1013.9
20260905062220 59 187 0.0 0.0 0.00 0.00 0.00 95 1014.1
20260905061714 59 183 0.0 0.0 0.00 0.00 0.00 95 1014.2
20260905061209 59 183 0.0 0.0 0.00 0.00 0.00 95 1014.3
20260905060704 59 154 0.0 0.0 0.00 0.00 0.00 95 1014.0
20260905060201 59 196 0.0 0.0 0.00 0.00 0.00 95 1014.1
20260905055659 59 196 0.0 0.0 0.00 0.00 0.00 95 1014.1
20260905055154 59 195 0.0 0.0 0.00 0.00 0.00 95 1014.2
20260905054649 59 195 0.0 0.0 0.00 0.00 0.00 95 1014.0
20260905054145 59 195 0.0 0.0 0.00 0.00 0.00 95 1014.1
20260905053645 59 196 0.0 0.0 0.00 0.00 0.00 95 1014.3
20260905053140 59 194 0.0 0.0 0.00 0.00 0.00 95 1014.2
20260905052639 59 178 0.0 0.0 0.00 0.00 0.00 95 1014.2
20260905052135 59 167 0.0 0.0 0.00 0.00 0.00 95 1014.2
20260905051629 59 167 0.0 0.0 0.00 0.00 0.00 95 1014.6
20260905051126 59 166 0.0 0.0 0.00 0.00 0.00 95 1014.2
20260905050622 59 194 0.0 0.0 0.00 0.00 0.00 95 1014.3
20260905050119 59 193 0.0 0.0 0.00 0.00 0.00 95 1014.4
20260905045618 60 186 0.0 0.0 0.00 0.00 0.00 95 1014.4
20260905045113 60 188 0.0 0.0 0.00 0.00 0.00 95 1014.4
20260905044608 60 197 0.0 0.0 0.00 0.00 0.00 95 1014.4
20260905044103 60 157 0.0 0.0 0.00 0.00 0.00 95 1014.5
20260905043601 60 181 0.0 0.0 0.00 0.00 0.00 95 1014.3
20260905043057 60 181 0.0 0.0 0.00 0.00 0.00 95 1014.4
20260905042555 60 181 0.0 0.0 0.00 0.00 0.00 95 1014.5
20260905042051 60 181 0.0 0.0 0.00 0.00 0.00 95 1014.6
20260905041546 60 184 0.0 0.0 0.00 0.00 0.00 95 1014.6
20260905041042 60 183 0.0 0.0 0.00 0.00 0.00 95 1014.5
20260905040541 61 187 0.0 0.0 0.00 0.00 0.00 95 1014.6
20260905040040 60 178 0.0 0.0 0.00 0.36 0.36 94 1014.6
20260905035535 61 174 0.0 0.0 0.00 0.36 0.36 94 1014.6
20260905035032 61 166 0.0 0.0 0.00 0.36 0.36 94 1014.6
20260905034527 61 176 0.0 0.0 0.00 0.36 0.36 94 1014.5
20260905034027 61 168 0.0 0.0 0.00 0.36 0.36 94 1014.6
20260905033521 61 167 0.0 0.0 0.00 0.36 0.36 93 1014.3
20260905033017 61 167 0.0 0.0 0.00 0.36 0.36 93 1014.6
20260905032512 61 167 0.0 0.0 0.00 0.36 0.36 93 1014.6
20260905032007 62 167 0.0 0.0 0.00 0.36 0.36 93 1014.5
20260905031503 62 167 0.0 0.0 0.00 0.36 0.36 93 1014.7
20260905030957 62 167 0.0 0.0 0.00 0.36 0.36 93 1014.4
20260905030453 62 168 0.0 0.0 0.00 0.36 0.36 92 1014.6
20260905025951 62 167 0.0 0.0 0.00 0.36 0.36 92 1014.4
20260905025448 62 168 0.0 0.0 0.00 0.36 0.36 92 1014.4
20260905024944 62 151 0.0 0.0 0.00 0.36 0.36 92 1014.5
20260905024444 62 150 0.0 0.0 0.00 0.36 0.36 92 1014.6
20260905023940 62 135 1.0 1.0 0.00 0.36 0.36 92 1014.5
20260905023434 62 129 1.0 2.0 0.00 0.36 0.36 91 1014.5
20260905022933 63 143 0.0 0.0 0.00 0.36 0.36 91 1014.2
20260905022429 63 154 0.0 1.0 0.00 0.36 0.36 90 1014.4
20260905021924 63 155 0.0 0.0 0.00 0.36 0.36 90 1014.6
20260905021424 64 158 0.0 0.0 0.00 0.36 0.36 90 1014.5
20260905020919 64 164 0.0 0.0 0.00 0.36 0.36 89 1014.4
20260905020418 64 163 0.0 0.0 0.00 0.36 0.36 89 1014.5
20260905015913 64 93 1.0 1.0 0.00 0.36 0.36 89 1014.2
20260905015411 65 142 0.0 0.0 0.00 0.36 0.36 89 1014.8
20260905014910 65 105 0.0 0.0 0.00 0.36 0.36 89 1014.8
20260905014406 66 152 0.0 0.0 0.00 0.36 0.36 89 1014.8
20260905013901 66 152 0.0 0.0 0.00 0.36 0.36 88 1014.8
20260905013357 66 153 0.0 0.0 0.00 0.36 0.36 88 1014.8
20260905012852 66 156 0.0 0.0 0.00 0.36 0.36 88 1014.8
20260905012348 66 137 0.0 0.0 0.00 0.36 0.36 88 1014.8
20260905011844 66 150 0.0 0.0 0.00 0.36 0.36 88 1014.8
20260905011339 66 150 0.0 0.0 0.00 0.36 0.36 88 1014.4
20260905010835 66 149 0.0 0.0 0.00 0.36 0.36 87 1014.5
20260905010330 66 150 0.0 0.0 0.00 0.36 0.36 87 1014.4
20260905005826 66 150 0.0 0.0 0.00 0.36 0.36 87 1014.3
20260905005322 66 150 0.0 0.0 0.00 0.36 0.36 87 1014.5
20260905004816 66 150 0.0 0.0 0.00 0.36 0.36 87 1014.5
20260905004311 66 150 0.0 0.0 0.00 0.36 0.36 87 1014.6
20260905003806 66 111 0.0 0.0 0.00 0.36 0.36 87 1014.4
20260905003303 66 147 0.0 0.0 0.00 0.36 0.36 87 1014.5
20260905002758 67 150 0.0 0.0 0.00 0.36 0.36 86 1014.3
20260905002257 67 156 0.0 0.0 0.00 0.36 0.36 86 1014.4
20260905001752 67 157 0.0 0.0 0.00 0.36 0.36 85 1014.2
20260905001252 67 157 0.0 0.0 0.00 0.36 0.36 84 1014.4
20260905000747 67 144 0.0 0.0 0.00 0.36 0.36 84 1014.2
20260905000243 67 159 0.0 0.0 0.00 0.36 0.36 83 1014.2
20260904235738 67 158 0.0 0.0 0.00 0.36 0.36 84 1014.1
20260904235232 67 182 0.0 0.0 0.00 0.36 0.36 84 1014.2
20260904234727 67 147 0.0 0.0 0.00 0.36 0.36 82 1014.1
20260904234222 67 109 0.0 0.0 0.00 0.36 0.36 82 1013.9
20260904233718 68 148 0.0 0.0 0.00 0.36 0.36 82 1014.2
20260904233214 68 148 0.0 0.0 0.00 0.36 0.36 82 1014.0
20260904232711 69 156 0.0 0.0 0.00 0.36 0.36 82 1014.0
20260904232207 69 172 0.0 0.0 0.00 0.36 0.36 81 1014.2
20260904231702 69 150 0.0 0.0 0.00 0.36 0.36 81 1014.1
20260904231157 69 107 1.0 2.0 0.00 0.36 0.36 80 1014.1
20260904230657 69 106 1.0 1.0 0.00 0.36 0.36 81 1013.9
20260904230152 69 143 1.0 1.0 0.00 0.36 0.36 80 1014.1
20260904225650 70 100 1.0 2.0 0.00 0.36 0.36 80 1013.9
20260904225145 70 110 1.0 1.0 0.00 0.36 0.36 78 1013.8
20260904224639 71 125 1.0 1.0 0.00 0.36 0.36 77 1013.6
20260904224139 71 116 1.0 1.0 0.00 0.36 0.36 76 1013.7
20260904223633 72 80 1.0 2.0 0.00 0.36 0.36 75 1013.8
20260904223129 72 101 1.0 2.0 0.00 0.36 0.36 73 1014.0
20260904222625 72 152 1.0 1.0 0.00 0.36 0.36 74 1013.9
20260904222120 72 144 1.0 1.0 0.00 0.36 0.36 73 1013.7
20260904221620 73 141 0.0 0.0 0.00 0.36 0.36 72 1013.8
20260904221119 73 147 0.0 0.0 0.00 0.36 0.36 72 1013.7
20260904220614 73 171 0.0 0.0 0.00 0.36 0.36 71 1013.7
20260904220110 74 81 2.0 2.0 0.00 0.36 0.36 70 1013.5
20260904215609 75 93 1.0 2.0 0.00 0.36 0.36 69 1013.6
20260904215106 75 125 1.0 1.0 0.00 0.36 0.36 68 1013.7
20260904214600 77 261 2.0 3.0 0.00 0.36 0.36 65 1013.5
20260904214056 77 237 2.0 2.0 0.00 0.36 0.36 65 1013.5
20260904213554 77 276 4.0 5.0 0.00 0.36 0.36 62 1013.5
20260904213051 77 291 4.0 7.0 0.00 0.36 0.36 63 1013.4
20260904212550 77 197 1.0 1.0 0.00 0.36 0.36 64 1013.7
20260904212045 77 275 4.0 6.0 0.00 0.36 0.36 63 1013.5
20260904211545 76 269 7.0 7.0 0.00 0.36 0.36 63 1013.6
20260904211040 78 228 4.0 5.0 0.00 0.36 0.36 62 1013.5
20260904210539 78 184 1.0 1.0 0.00 0.36 0.36 64 1013.4
20260904210037 78 192 2.0 3.0 0.00 0.36 0.36 61 1013.7
20260904205536 78 248 4.0 5.0 0.00 0.36 0.36 62 1013.4
20260904205033 78 250 4.0 5.0 0.00 0.36 0.36 61 1013.6
20260904204529 78 210 2.0 3.0 0.00 0.36 0.36 63 1013.8
20260904204025 78 67 1.0 2.0 0.00 0.36 0.36 63 1013.7
20260904203520 78 208 2.0 2.0 0.00 0.36 0.36 62 1013.8
20260904203017 78 212 1.0 2.0 0.00 0.36 0.36 62 1013.8
20260904202512 78 247 3.0 5.0 0.00 0.36 0.36 61 1013.9
20260904202009 79 309 5.0 7.0 0.00 0.36 0.36 59 1014.0
20260904201503 77 346 4.0 6.0 0.00 0.36 0.36 60 1014.1
20260904200959 77 322 4.0 7.0 0.00 0.36 0.36 61 1014.1
20260904200457 78 308 3.0 5.0 0.00 0.36 0.36 61 1014.1
20260904195953 77 204 1.0 1.0 0.00 0.36 0.36 62 1014.0
20260904195451 77 262 2.0 2.0 0.00 0.36 0.36 62 1014.3
20260904194950 78 301 4.0 6.0 0.00 0.36 0.36 61 1014.4
20260904194445 78 264 5.0 6.0 0.00 0.36 0.36 62 1014.2
20260904193940 79 196 1.0 2.0 0.00 0.36 0.36 60 1014.0
20260904193436 78 226 2.0 2.0 0.00 0.36 0.36 62 1014.3
20260904192931 77 290 5.0 8.0 0.00 0.36 0.36 63 1014.3
20260904192426 78 340 4.0 6.0 0.00 0.36 0.36 63 1014.3
20260904191922 78 325 7.0 8.0 0.00 0.36 0.36 62 1014.4
20260904191419 78 206 1.0 1.0 0.00 0.36 0.36 65 1014.4
20260904190915 77 151 0.0 1.0 0.00 0.36 0.36 66 1014.4
20260904190410 77 283 6.0 8.0 0.00 0.36 0.36 63 1014.5
20260904185907 76 306 3.0 3.0 0.00 0.36 0.36 65 1014.3
20260904185402 77 53 4.0 6.0 0.00 0.36 0.36 62 1014.6
20260904184902 79 257 4.0 6.0 0.00 0.36 0.36 62 1014.2
20260904184356 78 202 1.0 1.0 0.00 0.36 0.36 63 1014.5
20260904183851 77 149 2.0 3.0 0.00 0.36 0.36 63 1014.4
20260904183341 78 238 3.0 5.0 0.00 0.36 0.36 61 1015.0
20260904182836 78 314 5.0 6.0 0.00 0.36 0.36 61 1014.7
20260904182331 78 184 1.0 1.0 0.00 0.36 0.36 63 1014.6
20260904181827 78 294 5.0 8.0 0.00 0.36 0.36 62 1014.8
20260904181327 78 233 2.0 2.0 0.00 0.36 0.36 63 1014.6
20260904180822 77 287 8.0 9.0 0.00 0.36 0.36 61 1014.9
20260904180317 77 267 5.0 6.0 0.00 0.36 0.36 64 1015.1
20260904175816 76 215 2.0 2.0 0.00 0.36 0.36 65 1015.0
20260904175314 77 296 5.0 6.0 0.00 0.36 0.36 64 1014.9
20260904174809 76 313 7.0 9.0 0.00 0.36 0.36 65 1015.2
20260904174305 75 192 0.0 1.0 0.00 0.36 0.36 68 1015.1
20260904173801 76 54 3.0 5.0 0.00 0.36 0.36 66 1015.3
20260904173256 77 306 7.0 10.0 0.00 0.36 0.36 64 1015.2
20260904172752 76 174 1.0 2.0 0.00 0.36 0.36 69 1015.2
20260904172251 77 318 5.0 7.0 0.00 0.36 0.36 67 1015.4
20260904171746 76 273 4.0 6.0 0.00 0.36 0.36 66 1015.4
20260904171241 75 240 6.0 7.0 0.00 0.36 0.36 68 1015.3
20260904170738 75 273 6.0 7.0 0.00 0.36 0.36 67 1015.3
20260904170233 75 275 6.0 9.0 0.00 0.36 0.36 67 1015.5
20260904165733 74 287 3.0 3.0 0.00 0.36 0.36 69 1015.5
20260904165227 75 267 6.0 8.0 0.00 0.36 0.36 67 1015.5
20260904164727 76 294 6.0 7.0 0.00 0.36 0.36 66 1015.4
20260904164222 76 279 3.0 6.0 0.00 0.36 0.36 65 1015.3
20260904163718 76 148 1.0 1.0 0.00 0.36 0.36 67 1015.2
20260904163213 76 250 3.0 5.0 0.00 0.36 0.36 66 1015.1
20260904162712 75 250 1.0 3.0 0.00 0.36 0.36 69 1015.3
20260904162207 76 291 3.0 6.0 0.00 0.36 0.36 69 1015.0
20260904161703 76 173 2.0 2.0 0.00 0.36 0.36 70 1015.3
20260904161158 76 191 3.0 3.0 0.00 0.36 0.36 69 1015.3
20260904160654 76 191 1.0 2.0 0.00 0.36 0.36 69 1015.2
20260904160149 76 194 1.0 2.0 0.00 0.36 0.36 71 1015.3
20260904155644 75 336 4.0 5.0 0.00 0.36 0.36 71 1015.3
20260904155143 75 232 3.0 5.0 0.00 0.36 0.36 71 1015.3
20260904154642 74 299 3.0 3.0 0.00 0.36 0.36 72 1015.4
20260904154136 74 319 4.0 5.0 0.00 0.36 0.36 73 1015.1
20260904153631 74 234 3.0 5.0 0.00 0.36 0.36 74 1015.4
20260904153127 75 237 2.0 3.0 0.00 0.36 0.36 73 1015.2
20260904152623 74 112 2.0 2.0 0.00 0.36 0.36 74 1015.6
20260904152119 75 309 2.0 3.0 0.00 0.36 0.36 74 1015.8
20260904151613 74 34 2.0 3.0 0.00 0.36 0.36 75 1015.7
20260904151112 74 246 3.0 3.0 0.00 0.36 0.36 75 1015.8
20260904150608 74 76 1.0 2.0 0.00 0.36 0.36 77 1015.6
20260904145601 72 270 2.0 2.0 0.00 0.36 0.36 77 1015.5
20260904145056 72 329 5.0 7.0 0.00 0.36 0.36 79 1015.7
20260904144552 72 198 2.0 3.0 0.00 0.36 0.36 79 1015.7
20260904144048 71 195 1.0 2.0 0.00 0.36 0.36 80 1015.7
20260904143544 71 284 5.0 6.0 0.00 0.36 0.36 79 1015.8
20260904143040 73 206 1.0 2.0 0.00 0.36 0.36 79 1015.7
20260904142536 73 230 3.0 3.0 0.00 0.36 0.36 78 1015.7
20260904142032 72 155 0.0 1.0 0.00 0.36 0.36 80 1015.7
20260904141526 72 148 1.0 2.0 0.00 0.36 0.36 80 1015.7
20260904141022 71 335 5.0 6.0 0.00 0.36 0.36 80 1015.6